TimeMST,TemperatureF,Dew PointF,Humidity,Sea Level PressureIn,VisibilityMPH,Wind Direction,Wind SpeedMPH,Gust SpeedMPH,PrecipitationIn,Events,Conditions,WindDirDegrees,DateUTC
12:53 AM,9.0,-7.1,48,30.11,10.0,Variable,3.5,-,N/A,,Clear,0,2013-03-06 07:53:00
1:53 AM,15.1,-6.0,39,30.04,10.0,NE,4.6,-,N/A,,Clear,50,2013-03-06 08:53:00
2:53 AM,14.0,-5.1,43,30.02,10.0,NE,5.8,-,N/A,,Clear,50,2013-03-06 09:53:00
3:53 AM,15.1,-4.0,43,30.01,10.0,Calm,Calm,-,N/A,,Clear,0,2013-03-06 10:53:00
4:53 AM,10.9,-4.0,51,30.03,10.0,NE,4.6,-,N/A,,Clear,50,2013-03-06 11:53:00
5:53 AM,15.1,-2.9,45,30.04,10.0,Calm,Calm,-,N/A,,Clear,0,2013-03-06 12:53:00
6:53 AM,15.1,-0.9,49,30.07,10.0,Calm,Calm,-,N/A,,Clear,0,2013-03-06 13:53:00
7:53 AM,18.0,-0.0,45,30.09,10.0,Calm,Calm,-,N/A,,Clear,0,2013-03-06 14:53:00
8:53 AM,26.1,3.0,37,30.07,10.0,West,4.6,-,N/A,,Clear,260,2013-03-06 15:53:00
9:53 AM,32.0,6.1,34,30.02,10.0,South,8.1,-,N/A,,Clear,180,2013-03-06 16:53:00
10:53 AM,35.1,5.0,28,29.97,10.0,South,9.2,-,N/A,,Clear,170,2013-03-06 17:53:00
11:53 AM,37.9,6.1,27,29.96,10.0,South,13.8,18.4,N/A,,Clear,190,2013-03-06 18:53:00
12:53 PM,42.1,1.0,18,29.92,10.0,Calm,Calm,-,N/A,,Clear,0,2013-03-06 19:53:00
1:53 PM,39.9,1.0,20,29.87,10.0,SSW,11.5,21.9,N/A,,Partly Cloudy,210,2013-03-06 20:53:00
2:53 PM,42.1,-0.0,17,29.85,10.0,SSW,18.4,24.2,N/A,,Scattered Clouds,210,2013-03-06 21:53:00
3:53 PM,41.0,-2.0,16,29.85,10.0,SSW,15.0,20.7,N/A,,Partly Cloudy,210,2013-03-06 22:53:00
4:53 PM,39.0,3.9,23,29.88,10.0,SSW,16.1,25.3,N/A,,Clear,200,2013-03-06 23:53:00
5:53 PM,35.1,1.9,25,29.89,10.0,South,12.7,19.6,N/A,,Clear,190,2013-03-07 00:53:00
6:53 PM,35.1,1.9,25,29.92,10.0,WSW,10.4,16.1,N/A,,Clear,250,2013-03-07 01:53:00
7:53 PM,33.1,1.9,27,29.91,10.0,SSE,9.2,-,N/A,,Clear,160,2013-03-07 02:53:00
8:53 PM,34.0,3.0,27,29.86,10.0,SSE,8.1,20.7,N/A,,Clear,150,2013-03-07 03:53:00
9:53 PM,33.1,3.9,29,29.79,10.0,South,23.0,29.9,N/A,,Clear,180,2013-03-07 04:53:00
10:53 PM,30.9,3.9,32,29.81,10.0,SSW,9.2,-,N/A,,Clear,200,2013-03-07 05:53:00
11:53 PM,30.9,6.1,35,29.78,10.0,South,11.5,23.0,N/A,,Clear,170,2013-03-07 06:53:00